Telluride, CO

10:00 AM MST on December 10, 2016 (GMT -0700)
Telluride Regional

Weather History for KTEX - December, 2012

Change the Weather History Date:

Friday, December 28, 2012

  Actual Average Record
Temperature  
Mean Temperature 11 °F -  
Max Temperature 17 °F 34 °F 62 °F (2002)
Min Temperature 5 °F 14 °F -7 °F (2003)
Degree Days  
Heating Degree Days 54    
Moisture  
Dew Point 4 °F    
Average Humidity 73    
Maximum Humidity 93    
Minimum Humidity 49    
Precipitation  
Precipitation 0.00 in - - ()
Sea Level Pressure  
Sea Level Pressure 29.95 in    
Wind  
Wind Speed 5 mph (SW)    
Max Wind Speed 15 mph    
Max Gust Speed 17 mph    
Visibility 8 miles    
Events Snow    
Averages and records for this station are not official NWS values.
T = Trace of Precipitation, MM = Missing Value Source: NWS Daily Summary

Daily Weather History Graph

Daily Weather History Graph

Search for Another Location

Airport or City:

Trip Planner

Search our weather history database for the weather conditions in past years. The results will help you decide how hot, cold, wet, or windy it might be!

Date:

Astronomy

Dec. 28, 2012 Rise Set
Actual Time 7:26 AM MST 5:00 PM MST
Civil Twilight 6:57 AM MST 5:29 PM MST
Nautical Twilight 6:24 AM MST 6:02 PM MST
Astronomical Twilight 5:52 AM MST 6:34 PM MST
Moon 5:38 PM MST (12/28) 7:24 AM MST (12/28)
Length of Visible Light 10h 32m
Length of Day
9h 33m
Full, 100% of the Moon is Illuminated
Dec 28
Full
Jan 4
Last Quarter
Jan 11
New
Jan 18
First Quarter
Jan 26
Full

Hourly Weather History & Observations

Time (MST) Temp. Windchill Dew Point Humidity Pressure Visibility Wind Dir Wind Speed Gust Speed Precip Events Conditions
12:15 AM 14.0 °F 8.2 °F 12.2 °F 93% 29.79 in 1.5 mi West 3.5 mph - N/A Snow Light Snow
12:35 AM 14.0 °F - 12.2 °F 93% 29.79 in 1.8 mi Calm Calm - N/A Snow Light Snow
12:55 AM 14.0 °F 8.2 °F 12.2 °F 93% 29.79 in 2.5 mi WSW 3.5 mph - N/A Snow Light Snow
1:15 AM 14.0 °F - 12.2 °F 93% 29.79 in 3.0 mi Calm Calm - N/A Snow Light Snow
1:35 AM 12.2 °F - 10.4 °F 92% 29.79 in 4.0 mi Calm Calm - N/A Snow Light Snow
1:55 AM - - - N/A% 29.80 in 2.5 mi Calm Calm - N/A   Unknown
2:15 AM - - - N/A% 29.81 in 2.0 mi Calm Calm - N/A   Unknown
2:35 AM - - - N/A% 29.82 in 1.2 mi Calm Calm - N/A   Unknown
2:55 AM - - - N/A% 29.82 in 3.0 mi West 3.5 mph - N/A   Unknown
3:15 AM - - - N/A% 29.83 in 2.0 mi WSW 3.5 mph - N/A   Unknown
3:35 AM - - - N/A% 29.83 in 1.8 mi WSW 3.5 mph - N/A   Unknown
4:15 AM - - - N/A% 29.83 in 1.5 mi West 6.9 mph - N/A   Unknown
4:35 AM - - - N/A% 29.83 in 2.0 mi West 11.5 mph 16.1 mph N/A   Unknown
4:55 AM - - - N/A% 29.83 in 3.0 mi West 15.0 mph - N/A   Unknown
5:35 AM - - - N/A% 29.84 in 3.0 mi West 12.7 mph - N/A   Unknown
5:55 AM - - - N/A% 29.85 in 3.0 mi West 10.4 mph - N/A   Unknown
6:15 AM - - - N/A% 29.86 in 7.0 mi West 10.4 mph 17.3 mph N/A   Unknown
6:35 AM - - - N/A% 29.87 in 10.0 mi West 10.4 mph 17.3 mph N/A   Mostly Cloudy
6:55 AM - - - N/A% 29.88 in 10.0 mi West 11.5 mph - N/A   Mostly Cloudy
7:15 AM - - - N/A% 29.89 in 10.0 mi West 6.9 mph - N/A   Mostly Cloudy
7:35 AM - - - N/A% 29.90 in 10.0 mi Calm Calm - N/A   Overcast
7:55 AM - - - N/A% 29.90 in 2.0 mi Calm Calm - N/A   Unknown
8:15 AM - - - N/A% 29.91 in 4.0 mi Calm Calm - N/A   Unknown
8:35 AM - - - N/A% 29.92 in 10.0 mi Calm Calm - N/A   Unknown
9:15 AM - - - N/A% 29.92 in 7.0 mi Calm Calm - N/A   Clear
9:35 AM - - - N/A% 29.93 in 10.0 mi Calm Calm - N/A   Clear
9:55 AM - - - N/A% 29.93 in 10.0 mi Calm Calm - N/A   Unknown
10:15 AM - - - N/A% 29.95 in 5.0 mi Calm Calm - N/A   Unknown
10:35 AM 12.2 °F - 10.4 °F 92% 29.94 in 10.0 mi Calm Calm - N/A   Clear
10:55 AM 14.0 °F 8.2 °F 10.4 °F 86% 29.95 in 10.0 mi West 3.5 mph - N/A   Clear
11:15 AM 14.0 °F 6.5 °F 8.6 °F 79% 29.95 in 10.0 mi West 4.6 mph - N/A   Clear
11:35 AM 15.8 °F 4.2 °F 8.6 °F 73% 29.94 in 10.0 mi WSW 9.2 mph - N/A   Clear
11:55 AM 15.8 °F 2.1 °F 8.6 °F 73% 29.94 in 10.0 mi West 12.7 mph - N/A   Mostly Cloudy
12:15 PM 15.8 °F 2.1 °F 8.6 °F 73% 29.94 in 10.0 mi West 12.7 mph - N/A   Overcast
12:35 PM 15.8 °F 4.2 °F 6.8 °F 68% 29.93 in 10.0 mi West 9.2 mph - N/A   Overcast
12:55 PM 15.8 °F 4.2 °F 5.0 °F 62% 29.93 in 7.0 mi WSW 9.2 mph - N/A   Overcast
1:15 PM 17.6 °F 6.4 °F 5.0 °F 58% 29.93 in 10.0 mi West 9.2 mph - N/A   Scattered Clouds
1:35 PM 17.6 °F 6.4 °F 5.0 °F 58% 29.93 in 10.0 mi West 9.2 mph - N/A   Scattered Clouds
1:55 PM 17.6 °F 5.0 °F 5.0 °F 58% 29.94 in 10.0 mi WSW 11.5 mph - N/A   Mostly Cloudy
2:15 PM 17.6 °F 5.7 °F 3.2 °F 53% 29.95 in 10.0 mi West 10.4 mph 16.1 mph N/A   Scattered Clouds
2:35 PM 17.6 °F 5.7 °F 3.2 °F 53% 29.95 in 10.0 mi WSW 10.4 mph 16.1 mph N/A   Clear
2:55 PM 17.6 °F 5.7 °F 1.4 °F 49% 29.95 in 10.0 mi West 10.4 mph - N/A   Clear
3:35 PM 17.6 °F 7.3 °F 3.2 °F 53% 29.97 in 10.0 mi West 8.1 mph - N/A   Clear
3:55 PM 17.6 °F 5.7 °F 3.2 °F 53% 29.98 in 10.0 mi WSW 10.4 mph - N/A   Clear
4:15 PM 15.8 °F 4.2 °F 3.2 °F 58% 29.99 in 10.0 mi West 9.2 mph - N/A   Clear
4:55 PM 14.0 °F 8.2 °F 3.2 °F 62% 30.00 in 10.0 mi SSW 3.5 mph - N/A   Clear
5:15 PM 12.2 °F - 3.2 °F 67% 30.01 in 10.0 mi Calm Calm - N/A   Clear
5:35 PM 12.2 °F - 3.2 °F 67% 30.01 in 10.0 mi Calm Calm - N/A   Clear
5:55 PM 12.2 °F - 3.2 °F 67% 30.02 in 10.0 mi Calm Calm - N/A   Clear
6:15 PM 8.6 °F 2.0 °F 1.4 °F 73% 30.02 in 10.0 mi SSE 3.5 mph - N/A   Clear
6:35 PM 10.4 °F - 3.2 °F 73% 30.04 in 10.0 mi Calm Calm - N/A   Clear
6:55 PM 10.4 °F - 3.2 °F 73% 30.05 in 10.0 mi Calm Calm - N/A   Clear
7:15 PM 8.6 °F -2.6 °F 1.4 °F 73% 30.06 in 10.0 mi SE 6.9 mph - N/A   Clear
7:35 PM 6.8 °F -4.8 °F 1.4 °F 79% 30.06 in 10.0 mi ESE 6.9 mph - N/A   Clear
7:55 PM 6.8 °F -2.0 °F 1.4 °F 79% 30.06 in 10.0 mi SSE 4.6 mph - N/A   Clear
8:15 PM 6.8 °F -4.8 °F -0.4 °F 72% 30.07 in 10.0 mi ESE 6.9 mph - N/A   Clear
8:35 PM 6.8 °F -3.5 °F -0.4 °F 72% 30.07 in 10.0 mi SE 5.8 mph - N/A   Clear
8:55 PM 5.0 °F -6.9 °F -0.4 °F 78% 30.07 in 10.0 mi ESE 6.9 mph - N/A   Clear
9:15 PM 5.0 °F -6.9 °F -0.4 °F 78% 30.08 in 10.0 mi ESE 6.9 mph - N/A   Clear
9:35 PM 5.0 °F -5.6 °F -0.4 °F 78% 30.08 in 10.0 mi ESE 5.8 mph - N/A   Clear
9:55 PM 5.0 °F -8.1 °F -0.4 °F 78% 30.08 in 10.0 mi SE 8.1 mph - N/A   Clear
10:15 PM 5.0 °F -5.6 °F -0.4 °F 78% 30.09 in 10.0 mi East 5.8 mph - N/A   Clear
10:35 PM 5.0 °F - -0.4 °F 78% 30.10 in 10.0 mi Calm Calm - N/A   Clear
10:55 PM 5.0 °F -6.9 °F -0.4 °F 78% 30.10 in 10.0 mi ESE 6.9 mph - N/A   Clear
11:15 PM 5.0 °F -6.9 °F -0.4 °F 78% 30.10 in 10.0 mi ESE 6.9 mph - N/A   Clear
11:35 PM 5.0 °F -9.1 °F -0.4 °F 78% 30.10 in 10.0 mi SE 9.2 mph - N/A   Clear
11:55 PM 5.0 °F -5.6 °F -0.4 °F 78% 30.10 in 10.0 mi SE 5.8 mph - N/A   Clear